Location: Balagbag Mahabang Kahoy
(14.1562°N, 120.9200°E)
Time: 06:10:03
(UTC+00:00)

CCE 1 Rocket - Pass Details

Date: 16 January 2026
Orbit: 543 x 3968 km, 28.9° (Epoch: 15 February)

Event Time Altitude Azimuth Distance (km) Brightness Sun altitude
Exits shadow 21:23:12 23° 301° (WNW) 1,328 4.7 -14.8°
Maximum altitude 21:25:52 81° 27° (NNE) 748 3.9 -14.2°
Drops below altitude 10° 21:32:31 10° 115° (ESE) 3,010 8.5 -12.7°
Sets 21:36:15 0° 116° (ESE) 4,476 10.0 -11.8°
